Location: Brotuna
(46.2000°N, 22.6000°E)
Time: 05:08:45
(UTC+00:00)

CZ-4C R/B - Pass Details

Date: 09 April 2020
Orbit: 637 x 1365 km, 63.4° (Epoch: 01 June)

Event Time Altitude Azimuth Distance (km) Brightness Sun altitude
Rises 20:51:59 0° 320° (NW) 3,823 6.7 -31.5°
Reaches altitude 10° 20:54:28 10° 319° (NW) 2,963 5.9 -31.7°
Maximum altitude 21:01:42 81° 234° (SW) 1,252 2.8 -32.3°
Enters shadow 21:01:51 81° 217° (SW) 1,255 2.8 -32.3°
